Retour au catalogue

STARLINK-5097

ActifCommunicationsVLEO
NORAD 53995·PAYLOAD·🇺🇸 United States

Lancé Oct 5, 2022 depuis Vandenberg Space Force Base

Loading…

Prochains Passages (prochaines 24 heures)

TLE

FraisSource: CelesTrak SupGP

Époque: Sep 15, 2026, 02:27 UTC

1 53995C 22125AH  26258.10256944 -.00025696  00000+0 -75988-3 0  2584
2 53995  53.1589  77.1183 0001185  90.2105 285.6520 15.34374803    10

Suivez STARLINK-5097 en temps réel avec AllMySat

Download on the App Store